Apalachicola, FL

10:28 AM EDT on May 20, 2018 (GMT -0400)
Apalachicola Municipal

Weather History for KAAF - October, 2013

Change the Weather History Date:

Monday, October 14, 2013

  Actual Average Record
Temperature  
Mean Temperature 75 °F 71 °F  
Max Temperature 84 °F 81 °F 88 °F (1998)
Min Temperature 66 °F 61 °F 41 °F (1977)
Degree Days  
Heating Degree Days 0    
Month to date heating degree days 0  
Since 1 July heating degree days 0  
Cooling Degree Days 10    
Month to date cooling degree days 167  
Year to date cooling degree days 2564  
Growing Degree Days 24 (Base 50)    
Moisture  
Dew Point 64 °F    
Average Humidity 71    
Maximum Humidity 87    
Minimum Humidity 54    
Precipitation  
Precipitation 0.00 in 0.13 in 2.50 in (2014)
Month to date precipitation 2.37 2.23  
Year to date precipitation 51.89 48.90  
Sea Level Pressure  
Sea Level Pressure 30.06 in    
Wind  
Wind Speed 6 mph (NE)    
Max Wind Speed 12 mph    
Max Gust Speed 17 mph    
Visibility 10 miles    
Events      
T = Trace of Precipitation, MM = Missing Value Source: NWS Daily Summary

Daily Weather History Graph

Daily Weather History Graph

Search for Another Location

Airport or City:

Astronomy

Oct. 14, 2013 Rise Set
Actual Time 7:41 AM EDT 7:10 PM EDT
Civil Twilight 7:17 AM EDT 7:34 PM EDT
Nautical Twilight 6:49 AM EDT 8:02 PM EDT
Astronomical Twilight 6:21 AM EDT 8:29 PM EDT
Moon 4:22 PM EDT (10/14) 3:16 AM EDT (10/14)
Length of Visible Light 12h 17m
Length of Day
11h 29m
Waxing Gibbous, 79% of the Moon is Illuminated
Oct 14
Waxing Gibbous
Oct 18
Full
Oct 26
Last Quarter
Nov 3
New
Nov 10
First Quarter

Hourly Weather History & Observations

Time (EDT) Temp. Heat Index Dew Point Humidity Pressure Visibility Wind Dir Wind Speed Gust Speed Precip Events Conditions
12:53 AM 70.0 °F - 63.0 °F 78% 30.07 in 10.0 mi NNE 3.5 mph - N/A   Clear
1:53 AM 70.0 °F - 63.0 °F 78% 30.06 in 10.0 mi NE 5.8 mph - N/A   Clear
2:53 AM 69.1 °F - 63.0 °F 81% 30.06 in 10.0 mi NE 5.8 mph - N/A   Clear
3:53 AM 66.9 °F - 62.1 °F 84% 30.06 in 10.0 mi NE 5.8 mph - N/A   Clear
4:53 AM 66.9 °F - 62.1 °F 84% 30.06 in 10.0 mi NE 5.8 mph - N/A   Clear
5:53 AM 66.0 °F - 62.1 °F 87% 30.06 in 10.0 mi NE 8.1 mph - N/A   Clear
6:53 AM 66.0 °F - 62.1 °F 87% 30.08 in 10.0 mi NE 5.8 mph - N/A   Clear
7:53 AM 66.0 °F - 63.0 °F 90% 30.09 in 10.0 mi NE 5.8 mph - N/A   Clear
8:53 AM 70.0 °F - 64.0 °F 81% 30.10 in 10.0 mi NE 10.4 mph - N/A   Clear
9:53 AM 73.9 °F - 66.0 °F 76% 30.10 in 10.0 mi ENE 11.5 mph - N/A   Clear
10:53 AM 78.1 °F - 66.0 °F 66% 30.11 in 10.0 mi NE 9.2 mph - N/A   Clear
11:53 AM 80.1 °F 82.1 °F 66.0 °F 62% 30.09 in 10.0 mi NE 9.2 mph - N/A   Partly Cloudy
12:53 PM 81.0 °F 82.2 °F 63.0 °F 54% 30.08 in 10.0 mi North 8.1 mph - N/A   Scattered Clouds
1:53 PM 82.0 °F 84.5 °F 66.9 °F 60% 30.05 in 10.0 mi ESE 8.1 mph - N/A   Partly Cloudy
2:53 PM 81.0 °F 82.7 °F 64.9 °F 58% 30.03 in 10.0 mi SSE 4.6 mph - N/A   Mostly Cloudy
3:53 PM 80.1 °F 81.9 °F 64.9 °F 60% 30.02 in 10.0 mi ESE 6.9 mph - N/A   Overcast
4:53 PM 80.1 °F 81.9 °F 64.9 °F 60% 30.01 in 10.0 mi Variable 3.5 mph - N/A   Mostly Cloudy
5:53 PM 80.1 °F 81.2 °F 62.1 °F 54% 30.02 in 10.0 mi NNE 6.9 mph - N/A   Overcast
6:53 PM 77.0 °F - 63.0 °F 62% 30.03 in 10.0 mi NNE 4.6 mph - N/A   Partly Cloudy
7:53 PM 72.0 °F - 64.0 °F 76% 30.04 in 10.0 mi Calm Calm - N/A   Scattered Clouds
8:53 PM 71.1 °F - 64.0 °F 78% 30.05 in 10.0 mi Calm Calm - N/A   Scattered Clouds
9:53 PM 71.1 °F - 64.0 °F 78% 30.06 in 10.0 mi NE 5.8 mph - N/A   Clear
10:53 PM 71.1 °F - 64.0 °F 78% 30.07 in 10.0 mi NE 4.6 mph - N/A   Overcast
11:53 PM 68.0 °F - 63.0 °F 84% 30.07 in 10.0 mi NE 4.6 mph - N/A   Clear